Location: Oberwangen
(47.4286°N, 8.9679°E)
Time: 23:33:42
(UTC+00:00)

Cosmos 2228 - Pass Details

Date: 20 June 2021
Orbit: 588 x 618 km, 82.5° (Epoch: 23 July)

Event Time Altitude Azimuth Distance (km) Brightness Sun altitude
Rises 22:05:16 0° 345° (NNW) 2,904 8.3 -16.8°
Reaches altitude 10° 22:07:34 10° 339° (NNW) 1,994 7.0 -17.0°
Maximum altitude 22:11:46 45° 267° (W) 846 3.8 -17.2°
Enters shadow 22:14:02 24° 208° (SSW) 1,284 4.3 -17.3°
